Weather in Maloyaz

Russia / Republic of Bashkortostan     55°10′47″N   58°09′21″E
temp.,
°C
wind,
m/s
gust,
m/s
humid.,
%
clouds,
%
prec.,
mm/h
press.,
hPa
HPBL,
m
13 august, sat
sat1323:00+14wsw33805 0.0 101946
02:00+13sw348733 0.0 101975
05:00+12sw379314 0.0 1018136
08:00+15wsw410825 0.0 1018320
11:00+20w79640 0.0 1017981
14:00+21w596767 0.2 10161045
17:00+23wnw485913 0.6 10161707
20:00+18nnw39702 0.0 1017197
14 august, sun
sun1423:00+13nnw22794 0.0 101911
02:00+11nw11865 0.0 102010
05:00+9nnw11855 0.0 102110
08:00+13ne11725 0.0 1022138
11:00+17nne12550 0.0 1021724
14:00+19nne33460 0.0 10211585
17:00+20ne33470 0.0 10211356
20:00+16ese116310 0.0 102011
15 august, mon
mon1523:00+12ne01697 0.0 102110
02:00+10s00780 0.0 102210
05:00+9se00810 0.0 102310
08:00+13ssw11690 0.0 102395
11:00+18n11540 0.0 1023590
14:00+21n23440 0.0 10231776
17:00+20ne44480 0.0 10221291
20:00+16ene22660 0.0 102311
16 august, tue
tue1623:00+12nne11760 0.0 102410
02:00+10n11790 0.0 102510
05:00+8nnw01820 0.0 102510
08:00+12n11690 0.0 1026119
11:00+17n23530 0.0 1025687
14:00+20n33460 0.0 10251031
17:00+21nne23480 0.0 10241111
20:00+16ssw226768 0.0 102414
17 august, wed
wed1723:00+13wsw117729 0.0 102412
02:00+12w118343 0.0 102510
05:00+10wnw11850 0.0 102510
08:00+13nnw12730 0.0 1026161
11:00+17n34523 0.0 1026756
14:00+19n34433 0.0 10251060
17:00+20nne24431 0.0 10241152
20:00+15sse116320 0.0 102311